Air Resources Laboratory banner image
Air Resources Laboratory web site National Oceanic and Atmospheric Administration (NOAA)

vt roundup


Office: BTV

ASUS41 KBTV 170910
RWRBTV
VERMONT REGIONAL WEATHER ROUNDUP
NATIONAL WEATHER SERVICE BURLINGTON VT
500 AM EDT WED AUG 17 2022

NOTE: "FAIR" INDICATES FEW OR NO CLOUDS BELOW 12,000 FEET WITH NO
SIGNIFICANT WEATHER AND/OR OBSTRUCTIONS TO VISIBILITY.

* THESE REPORTS ARE NOT UNDER NWS QUALITY CONTROL AND/OR DO NOT
  REPORT WEATHER SUCH AS PRECIPITATION AND FOG.

VTZ001>019-171000-
_____VERMONT_____


CITY           SKY/WX    TMP DP  RH WIND       PRES   REMARKS
BURLINGTON     CLEAR     63  59  87 CALM      30.07S
MONTPELIER     FOG       61  58  90 CALM      30.13S VSB 1/4
MORRISVILLE    MOCLDY    55  53  93 CALM      30.10F
LYNDONVILLE*   FAIR      57  54  89 CALM      30.11S
MIDDLEBURY*    CLOUDY    59  58  99 CALM      30.07S
RUTLAND*       CLOUDY    61  59  93 CALM      30.07S
SPRINGFIELD    CLOUDY    62  61  96 CALM      30.06S
HIGHGATE*      FAIR      59  58  96 CALM      30.08S
NEWPORT*       CLOUDY    58  55  91 CALM      30.12S FOG
BENNINGTON     CLOUDY    63  59  87 CALM      30.06R
LAKE EDEN*       N/A     61 N/A N/A N1          N/A

_____LAKE CHAMPLAIN_____


CITY           SKY/WX    TMP DP  RH WIND       PRES   REMARKS
BURTON ISLAND*   N/A     63  63 100 CALM        N/A
COLCHESTER RF*   N/A     66  61  82 NW12        N/A
DIAMOND ISL*     N/A     68  61  77 N9          N/A

$$

NYZ007-026>031-035-052-083-087-171000-
_____NORTHERN NEW YORK_____


CITY           SKY/WX    TMP DP  RH WIND       PRES   REMARKS
PLATTSBURGH    CLEAR     58  56  93 CALM      30.07S
SARANAC LAKE   CLOUDY    55  54  96 CALM      30.11S
MASSENA        PTCLDY    60  57  89 CALM      30.10R
OGDENSBURG*    FAIR      59  59 100 CALM      30.06S
POTSDAM*       MOCLDY    61  57  88 NE5       30.09R
WATERTOWN      CLOUDY    62  58  86 CALM      30.06R
FT DRUM        CLOUDY    63  57  81 SE7       30.05R
ALBANY         LGT RAIN  68  59  73 N3        30.05R
GLENS FALLS    MOCLDY    60  59  96 CALM      30.05S

$$
NHZ002-005-011-171000-
_____NEW HAMPSHIRE_____


CITY           SKY/WX    TMP DP  RH WIND       PRES   REMARKS
LEBANON        LGT RAIN  63  58  83 N5        30.07S
KEENE          CLEAR     60  58  92 CALM        N/A
MT WASHINGTON  FOG       45  45 100 E32         N/A  VSB 0
PLYMOUTH       FAIR      58  57  97 CALM      30.05F FOG
WHITEFIELD     CLEAR     55  53  93 CALM      30.09F

$$

_____REGIONAL QUEBEC LOCATIONS_____


CITY           SKY/WX    TMP DP  RH WIND       PRES   REMARKS
MONTREAL       CLOUDY    64  52  63 NE12      30.09S
QUEBEC CITY    MOCLDY    59  54  82 NE6       30.13F
SHERBROOKE     PTCLDY    59  57  94 NE3       30.11S

_____REGIONAL ONTARIO LOCATIONS_____


CITY           SKY/WX    TMP DP  RH WIND       PRES   REMARKS
OTTAWA         MOCLDY    64  57  77 NE12      30.10R

______KEY______
VSB  - VISIBILITY IN MILES
WCI  - WIND CHILL INDEX
HX   - HEAT INDEX
$$
NNNN


ASUS41 KBTV 170930
RWRBTV
VERMONT REGIONAL WEATHER ROUNDUP
NATIONAL WEATHER SERVICE BURLINGTON VT
500 AM EDT WED AUG 17 2022

NOTE: "FAIR" INDICATES FEW OR NO CLOUDS BELOW 12,000 FEET WITH NO
SIGNIFICANT WEATHER AND/OR OBSTRUCTIONS TO VISIBILITY.

* THESE REPORTS ARE NOT UNDER NWS QUALITY CONTROL AND/OR DO NOT
  REPORT WEATHER SUCH AS PRECIPITATION AND FOG.

VTZ001>019-171000-
_____VERMONT_____


CITY           SKY/WX    TMP DP  RH WIND       PRES   REMARKS
BURLINGTON     CLEAR     63  59  87 CALM      30.07S
MONTPELIER     FOG       61  58  90 CALM      30.13S VSB 1/4
MORRISVILLE    MOCLDY    55  53  93 CALM      30.10F
LYNDONVILLE*   FAIR      57  54  92 CALM      30.11S
MIDDLEBURY*    CLOUDY    59  58  99 CALM      30.07S
RUTLAND*       CLOUDY    61  59  93 CALM      30.07S
SPRINGFIELD    CLOUDY    62  61  96 CALM      30.06S
HIGHGATE*      FAIR      59  58  96 CALM      30.08S
NEWPORT*       CLOUDY    57  55  92 CALM      30.12S FOG
BENNINGTON     CLOUDY    63  59  87 CALM      30.06R
ISLAND POND*     N/A     52 N/A N/A CALM        N/A
GALLUP MILLS*    N/A     55 N/A N/A MISG        N/A
LAKE EDEN*       N/A     61 N/A N/A N1          N/A
MT. MANSFIELD*   N/A     57 N/A N/A CALM        N/A

_____LAKE CHAMPLAIN_____


CITY           SKY/WX    TMP DP  RH WIND       PRES   REMARKS
BURTON ISLAND*   N/A     63  63 100 CALM        N/A
COLCHESTER RF*   N/A     66  61  82 NW10        N/A
DIAMOND ISL*     N/A     68  61  77 N9          N/A

$$

NYZ007-026>031-035-052-083-087-171000-
_____NORTHERN NEW YORK_____


CITY           SKY/WX    TMP DP  RH WIND       PRES   REMARKS
PLATTSBURGH    CLEAR     58  56  93 CALM      30.07S
SARANAC LAKE   CLOUDY    55  54  96 CALM      30.11S
MASSENA        PTCLDY    60  57  89 CALM      30.10R
OGDENSBURG*    FAIR      61  59  94 CALM      30.06S
POTSDAM*       MOCLDY    61  57  88 CALM      30.08S
WATERTOWN      CLOUDY    62  58  86 CALM      30.06R
FT DRUM        CLOUDY    63  57  81 SE7       30.05R
ALBANY         LGT RAIN  68  59  73 N3        30.05R
GLENS FALLS    MOCLDY    60  59  96 CALM      30.05S

$$
NHZ002-005-011-171000-
_____NEW HAMPSHIRE_____


CITY           SKY/WX    TMP DP  RH WIND       PRES   REMARKS
LEBANON        LGT RAIN  63  58  83 N5        30.07S
KEENE          CLEAR     60  58  92 CALM        N/A
MT WASHINGTON  FOG       45  45 100 E32         N/A  VSB 0
PLYMOUTH       FAIR      58  57  97 CALM      30.06S FOG
WHITEFIELD     CLEAR     55  53  93 CALM      30.09F

$$

_____REGIONAL QUEBEC LOCATIONS_____


CITY           SKY/WX    TMP DP  RH WIND       PRES   REMARKS
MONTREAL       CLOUDY    64  52  63 NE12      30.09S
QUEBEC CITY    MOCLDY    59  54  82 NE6       30.13F
SHERBROOKE     PTCLDY    59  57  94 NE3       30.11S

_____REGIONAL ONTARIO LOCATIONS_____


CITY           SKY/WX    TMP DP  RH WIND       PRES   REMARKS
OTTAWA         MOCLDY    64  57  77 NE12      30.10R

______KEY______
VSB  - VISIBILITY IN MILES
WCI  - WIND CHILL INDEX
HX   - HEAT INDEX
$$
NNNN




Office: BOX ASUS41 KBOX 170910 RWRBOX REGIONAL WEATHER ROUNDUP NATIONAL WEATHER SERVICE BOSTON/NORTON MA 500 AM EDT WED AUG 17 2022 NOTE: "FAIR" INDICATES FEW OR NO CLOUDS BELOW 12,000 FEET WITH NO SIGNIFICANT WEATHER AND/OR OBSTRUCTIONS TO VISIBILITY. MAZALL-171000- EASTERN MASSACHUSETTS CITY SKY/WX TMP DP RH WIND PRES REMARKS BOSTON MOCLDY 66 61 84 N8 29.98F BEVERLY PTCLDY 63 60 90 N7 29.98F LAWRENCE MOCLDY 64 60 87 CALM 30.01F BEDFORD MOCLDY 63 59 87 NW6 29.98F BLUE HILL NOT AVBL NORWOOD CLOUDY 65 N/A N/A CALM 29.98F MARSHFIELD CLOUDY 64 63 94 VRB3 29.96S PLYMOUTH CLOUDY 63 61 93 N8 29.96F TAUNTON N/A N/A N/A N/A MISG 29.96F NEW BEDFORD CLOUDY 64 63 96 N5 29.95F $$ MAZALL-171000- CAPE COD AND THE ISLANDS CITY SKY/WX TMP DP RH WIND PRES REMARKS FALMOUTH CLOUDY 64 59 82 N7G14 29.95F HYANNIS LGT RAIN 66 62 87 N12 29.93R CHATHAM PTCLDY 67 61 81 N8G16 29.93F NANTUCKET CLOUDY 68 64 87 N15 29.91S MARTHAS VNYRD MOCLDY 66 62 87 N10 29.94S $$ MAZALL-171000- CENTRAL AND WESTERN MASSACHUSETTS CITY SKY/WX TMP DP RH WIND PRES REMARKS WORCESTER CLOUDY 65 55 70 N7 30.03S FITCHBURG CLOUDY 66 54 65 CALM 30.02F ORANGE CLEAR 64 56 75 CALM 30.04S SPRINGFIELD PTCLDY 63 57 82 N5 29.99F WESTFIELD PTCLDY 65 55 70 N5 30.01F NORTH ADAMS CLOUDY 61 58 90 CALM 30.05S PITTSFIELD CLOUDY 60 54 80 CALM 30.04F $$ RIZALL-171000- RHODE ISLAND CITY SKY/WX TMP DP RH WIND PRES REMARKS PROVIDENCE LGT RAIN 64 60 87 NW7 29.98F NEWPORT LGT RAIN 64 62 93 N9 29.97F BLOCK ISLAND LGT RAIN 62 60 93 N9 29.98S SMITHFIELD LGT RAIN 62 60 93 N7 30.00F WESTERLY LGT RAIN 63 60 90 N6 29.99S $$ CTZALL-171000- CONNECTICUT CITY SKY/WX TMP DP RH WIND PRES REMARKS BRADLEY INTL CLOUDY 67 55 65 N6 30.01S HARTFORD LGT RAIN 67 59 75 CALM 30.01S BRIDGEPORT CLOUDY 68 56 65 N5 30.01S DANBURY CLOUDY 61 56 83 W3 30.04S GROTON LGT RAIN 65 61 87 N7 29.98F NEW HAVEN CLOUDY 68 60 75 CALM 30.01S CHESTER LGT RAIN 63 61 94 CALM 30.01S MERIDEN CLOUDY 66 56 70 CALM 30.01S WILLIMANTIC CLOUDY 62 60 93 CALM 30.01S OXFORD CLOUDY 62 57 83 CALM 30.04S $$ MEZ002-015-021-024-NHZ003-005-008-011-012-014-VTZ005-008-171000- NORTHERN NEW ENGLAND CITY SKY/WX TMP DP RH WIND PRES REMARKS PORTLAND ME CLOUDY 67 58 72 N9 30.01F BANGOR ME MOCLDY 65 59 81 N9 30.04S CONCORD NH PTCLDY 65 58 78 NW3 30.02S MANCHESTER NH CLOUDY 68 58 70 VRB3 30.00S NASHUA NH MOCLDY 64 63 96 CALM 30.02S PORTSMOUTH NH CLOUDY 67 56 68 N7 29.99F JAFFREY NH PTCLDY 62 56 80 CALM 30.04F KEENE NH CLEAR 60 58 92 CALM N/A BURLINGTON VT CLEAR 63 59 87 CALM 30.07S MT. WASHINGTON FOG 45 45 100 E32 N/A VSB 0 $$ NYZ052-076-171000- EASTERN NEW YORK CITY SKY/WX TMP DP RH WIND PRES REMARKS ALBANY LGT RAIN 68 59 73 N3 30.05R NEW YORK CITY PTCLDY 69 57 65 NE5 30.00S $$ ANZALL-171000- MARINE OBSERVATIONS STATION/POSITION TIME TEMP WIND PRES VSBY WAVE AIR SEA DIR/SP/G HT/PER (UTC) (F) (DEG/KT/KT) (MB) (MI) (FT/S) BOSTON BUOY NOT AVBL BUZZARDS BAY NOT AVBL NANTUCKET SOUND NOT AVBL MASS BAY-STELLWA NOT AVBL ISLE OF SHOALS NOT AVBL S OF BLOCK IS NOT AVBL $$ ......................KEY......................... SKY/WX - SKY CONDITION/PRESENT WEATHER TMP - TEMPERATURE IN FAHRENHEIT DWPT - DEWPOINT IN FAHRENHEIT RH - RELATIVE HUMIDITY IN PERCENT WIND - DIRECTION AND SPEED IN MPH PRES - MEAN SEA LEVEL PRESSURE IN INCHES OF HG WCI - WIND CHILL INDEX VSB - VISIBILITY IN MILES HX - HEAT INDEX TC - TEMPERATURE IN CELSIUS VRB - VARIABLE WIND DIRECTION N/A - NOT AVAILABLE
Office: GYX ASUS41 KGYX 171005 RWRGYX WEATHER ROUNDUP FOR MAINE AND NEW HAMPSHIRE NATIONAL WEATHER SERVICE GRAY ME 600 AM EDT WED AUG 17 2022 MEZ002-005-006-010-012-015-018-020-021-024-026-027-029-171100- MAINE CITY SKY/WX TMP DP RH WIND PRES REMARKS PORTLAND CLOUDY 66 58 75 N10 30.01S SANFORD CLOUDY 66 60 81 N9 30.02S BAR HARBOR CLOUDY 66 56 70 N8 30.01S WISCASSET CLOUDY 66 57 72 CALM 30.03R ROCKLAND CLOUDY 68 57 68 VRB6 30.00S FRYEBURG MOCLDY 60 59 96 CALM 30.07R LEWISTONAUBURN CLOUDY 64 60 87 N6 30.05R AUGUSTA CLOUDY 65 58 78 N7 30.05S WATERVILLE MOCLDY 64 58 80 N10 30.03S BANGOR CLOUDY 64 59 83 N9 30.05R GREENVILLE N/A 62 52 69 N5 30.09S MILLINOCKET MOCLDY 64 58 80 N8 30.10S HOULTON MOCLDY 58 56 93 N5 30.09R PRESQUE ISLE MOCLDY 58 56 93 NE7 30.14R FRENCHVILLE MOCLDY 60 54 80 N8 30.16R CARIBOU MOCLDY 57 54 89 N9 30.13R $$ NHZ002-005-008-009-011-012-014-171100- NEW HAMPSHIRE CITY SKY/WX TMP DP RH WIND PRES REMARKS PORTSMOUTH CLOUDY 66 56 71 N8 29.99S ROCHESTER CLOUDY 67 59 75 N5 30.01S NASHUA CLOUDY 66 64 93 NW5 30.01F MANCHESTER LGT RAIN 68 59 73 N6 30.00S CONCORD CLOUDY 64 58 80 NW6 30.02S LACONIA CLOUDY 67 58 72 NE3 30.04S BERLIN CLOUDY 54 52 93 CALM 30.11R WHITEFIELD CLOUDY 55 53 93 CALM 30.10R JAFFREY CLOUDY 62 56 80 CALM 30.05R KEENE CLOUDY 60 58 92 CALM N/A LEBANON LGT RAIN 63 58 83 N5 30.07S MT WASHINGTON FOG 45 45 100 NE36G43 N/A VSB 0 $$ VTZ005-007-008-171100- VERMONT CITY SKY/WX TMP DP RH WIND PRES REMARKS MONTPELIER FOG 61 57 87 CALM 30.14R VSB 1/4 BURLINGTON CLOUDY 62 59 90 CALM 30.08R $$ MAZ007-012-024-CTZ003-RIZ002-NYZ038-NYZ072-171100- SOUTHERN NEW ENGLAND AND NY CITY SKY/WX TMP DP RH WIND PRES REMARKS BOSTON CLOUDY 66 61 84 N8 29.98S WORCESTER CLOUDY 63 57 81 N8 30.02F NANTUCKET MOCLDY 67 64 90 N14 29.92R PROVIDENCE LGT RAIN 64 59 83 N9 29.98S HARTFORD LGT RAIN 66 56 70 N5 30.01S ALBANY LGT RAIN 65 61 87 NW6 30.05S NEW YORK CITY PTCLDY 69 55 60 N6 30.01R $$ ANZ081-ANZ082-ANZ150-NHZ014-MEZ023>029-171100- COASTAL MARINE OBSERVATIONS STATION/POSITION TIME TEMP WIND PRES WAVE AIR SEA DIR/SP/G HT/PER (UTC) (F) (DEG/KT/KT) (MB) (FT/S) MOUNT DESERT ROC 0900 65 350/ 20/ 21 1014.1F MATINICUS ROCK 0900 63 360/ 15/ 16 1015.3F ISLE OF SHOALS 0900 67 10/ 10/ 10 1014.9F JEFFREYS LEDGE 0926 67 N/A 5/ 8 CASHES LEDGE BUO 0950 66 67 30/ 17/ 21 1013.8R 5/ 8 GEORGES BANK BUO 0950 71 1007.7S 8/ 8 $$ .............KEY.............. WCI - WIND CHILL TC - TEMPERATURE IN CELSIUS VSB - VISIBILITY IN MILES HX - HEAT INDEX FAIR- INDICATES FEW OR NO CLOUDS BELOW 12,000 FT, WITH NO SIGNIFICANT WEATHER AND/OR OBSTRUCTIONS TO VISIBILITY.